This is the latest recevied weather packets stored in our database for station/object VU2IB-13. If no packets are shown the sender has not sent any weather packets the latest 1 day(s).
| Time | Temp. | Humidity | Pressure | Rain* | Wind** | Luminosity | Snow |
|---|---|---|---|---|---|---|---|
| 1778068525 | 33.33° C | 34% | 1002.6 hPa | - | - | - | - |
| 1778068401 | 33.33° C | 34% | 1002.6 hPa | - | - | - | - |
| 1778068217 | 33.33° C | 37% | 1002.6 hPa | - | - | - | - |
| 1778068156 | 33.33° C | 36% | 1002.6 hPa | - | - | - | - |
| 1778067972 | 33.33° C | 35% | 1002.6 hPa | - | - | - | - |
| 1778067728 | 33.33° C | 34% | 1002.6 hPa | - | - | - | - |
| 1778067479 | 33.33° C | 31% | 1002.7 hPa | - | - | - | - |
| 1778067418 | 33.33° C | 32% | 1002.7 hPa | - | - | - | - |
| 1778067357 | 33.33° C | 32% | 1002.7 hPa | - | - | - | - |
| 1778067234 | 33.33° C | 33% | 1002.7 hPa | - | - | - | - |
| 1778066990 | 33.33° C | 35% | 1002.8 hPa | - | - | - | - |
| 1778066928 | 33.33° C | 35% | 1002.7 hPa | - | - | - | - |
| 1778066865 | 33.33° C | 35% | 1002.8 hPa | - | - | - | - |
| 1778066804 | 33.33° C | 35% | 1002.7 hPa | - | - | - | - |
| 1778066743 | 33.89° C | 35% | 1002.7 hPa | - | - | - | - |
| 1778066375 | 33.89° C | 35% | 1002.9 hPa | - | - | - | - |
| 1778066314 | 33.89° C | 35% | 1002.8 hPa | - | - | - | - |
| 1778066253 | 33.89° C | 33% | 1002.8 hPa | - | - | - | - |
| 1778066192 | 33.89° C | 35% | 1002.8 hPa | - | - | - | - |
| 1778066069 | 33.89° C | 37% | 1002.8 hPa | - | - | - | - |
| 1778066008 | 33.89° C | 36% | 1002.9 hPa | - | - | - | - |
| 1778065946 | 33.89° C | 36% | 1002.9 hPa | - | - | - | - |
| 1778065885 | 33.89° C | 36% | 1002.9 hPa | - | - | - | - |
| 1778065822 | 33.89° C | 36% | 1002.9 hPa | - | - | - | - |
| 1778065761 | 33.89° C | 35% | 1002.9 hPa | - | - | - | - |
* Rain since midnight (hover to see other rain measurements)
** Current wind speed in m/s (hover to see current wind gust speed)